This is the latest recevied weather packets stored in our database for station/object HOWARD. If no packets are shown the sender has not sent any weather packets the latest 10 day(s).
| Time | Temp. | Humidity | Pressure | Rain* | Wind** | Luminosity | Snow |
|---|---|---|---|---|---|---|---|
| 1778219512 | 5.56° C | 44% | 1013.1 hPa | 0 mm | - | - | - |
| 1778218912 | 5.56° C | 44% | 1013.3 hPa | 0 mm | - | - | - |
| 1778218312 | 6.11° C | 43% | 1013.4 hPa | 0 mm | - | - | - |
| 1778217712 | 6.11° C | 43% | 1013.4 hPa | 0 mm | - | - | - |
| 1778217112 | 6.11° C | 44% | 1013.5 hPa | 0 mm | - | - | - |
| 1778216512 | 5.56° C | 44% | 1013.5 hPa | 0 mm | - | - | - |
| 1778215912 | 6.11° C | 45% | 1013.5 hPa | 0 mm | - | - | - |
| 1778215312 | 5.56° C | 43% | 1013.5 hPa | 0 mm | - | - | - |
| 1778214712 | 6.11° C | 41% | 1013.6 hPa | 0 mm | - | - | - |
| 1778214111 | 5.56° C | 43% | 1013.6 hPa | 0 mm | - | - | - |
| 1778213512 | 5° C | 45% | 1013.8 hPa | 0 mm | - | - | - |
| 1778212912 | 5° C | 45% | 1013.7 hPa | 0 mm | - | - | - |
| 1778212311 | 5.56° C | 44% | 1013.7 hPa | 0 mm | - | - | - |
| 1778211747 | 5.56° C | - | 1013.6 hPa | 0 mm | - | - | - |
| 1778211711 | 5.56° C | - | 1013.6 hPa | 0 mm | - | - | - |
| 1778211112 | 5.56° C | 42% | 1013.5 hPa | 0 mm | - | - | - |
| 1778210512 | 5.56° C | 41% | 1013.5 hPa | 0 mm | - | - | - |
| 1778209912 | 5.56° C | 42% | 1013.4 hPa | 0 mm | - | - | - |
| 1778209313 | 5.56° C | 43% | 1014 hPa | 0 mm | - | - | - |
| 1778208711 | 5.56° C | 44% | 1013.9 hPa | 0 mm | - | - | - |
| 1778208112 | 6.11° C | 48% | 1013.8 hPa | 0 mm | - | - | - |
| 1778207511 | 6.11° C | 51% | 1013.6 hPa | 0 mm | - | - | - |
| 1778206911 | 6.11° C | 54% | 1013.8 hPa | 0 mm | - | - | - |
| 1778206311 | 6.11° C | 53% | 1013.7 hPa | 0 mm | - | - | - |
| 1778205711 | 6.67° C | 54% | 1013.6 hPa | 0 mm | - | - | - |
* Rain latest hour (hover to see other rain measurements)
** Current wind speed in m/s (hover to see current wind gust speed)